OK2ZA-6 Weather Reports


Display with metric or nautical units.
time (UTC)temp
F
wind
direction
speed
MPH
gust
MPH
rain 1hr
in
rain 24hr
in
rain mn
in
humidity
%
barometer
mb
20260905191004 66 306 8.0 12.0 0.00 0.02 0.02 58 1021.4
20260905190004 66 292 9.0 17.0 0.00 0.02 0.02 58 1021.3
20260905185004 66 253 5.0 8.0 0.00 0.02 0.02 59 1020.9
20260905184004 67 239 4.0 8.0 0.00 0.02 0.02 59 1020.7
20260905183004 67 246 4.0 7.0 0.00 0.02 0.02 58 1020.5
20260905182004 67 263 6.0 9.0 0.00 0.02 0.02 57 1020.4
20260905181004 68 268 8.0 14.0 0.00 0.02 0.02 56 1020.4
20260905180004 68 270 8.0 13.0 0.00 0.02 0.02 55 1020.3
20260905175004 68 269 8.0 14.0 0.00 0.02 0.02 54 1020.2
20260905174004 69 263 10.0 16.0 0.00 0.02 0.02 53 1020.0
20260905173004 69 262 12.0 20.0 0.00 0.02 0.02 52 1019.9
20260905172004 69 263 10.0 16.0 0.00 0.02 0.02 51 1019.9
20260905171004 70 260 9.0 19.0 0.00 0.02 0.02 50 1019.8
20260905170004 70 252 8.0 17.0 0.00 0.02 0.02 49 1019.7
20260905165004 70 263 9.0 15.0 0.00 0.02 0.02 49 1019.7
20260905164004 70 266 9.0 19.0 0.00 0.02 0.02 48 1019.6
20260905163004 70 261 12.0 19.0 0.00 0.02 0.02 47 1019.5
20260905162004 71 255 15.0 23.0 0.00 0.02 0.02 46 1019.4
20260905161004 71 263 13.0 23.0 0.00 0.02 0.02 46 1019.3
20260905160004 72 264 13.0 28.0 0.00 0.02 0.02 44 1019.3
20260905155004 72 268 16.0 27.0 0.00 0.02 0.02 45 1019.3
20260905154004 72 264 16.0 28.0 0.00 0.02 0.02 45 1019.3
20260905153004 72 267 15.0 27.0 0.00 0.02 0.02 45 1019.3
20260905152004 72 278 12.0 20.0 0.00 0.02 0.02 46 1019.2
20260905151004 72 286 15.0 23.0 0.00 0.02 0.02 45 1019.2
20260905150004 72 261 16.0 30.0 0.00 0.02 0.02 44 1019.2
20260905145004 72 261 15.0 28.0 0.00 0.02 0.02 43 1019.2
20260905144004 72 273 14.0 23.0 0.00 0.02 0.02 45 1019.2
20260905143004 72 277 16.0 28.0 0.00 0.02 0.02 43 1019.2
20260905142004 72 279 16.0 28.0 0.00 0.02 0.02 43 1019.3
20260905141003 72 274 15.0 27.0 0.00 0.02 0.02 44 1019.2
20260905140004 72 276 17.0 28.0 0.00 0.02 0.02 44 1019.3
20260905135004 72 233 14.0 25.0 0.00 0.02 0.02 45 1019.2
20260905134004 72 207 13.0 24.0 0.00 0.02 0.02 44 1019.3
20260905133004 72 212 15.0 23.0 0.00 0.02 0.02 45 1019.3
20260905132004 72 284 16.0 25.0 0.00 0.02 0.02 46 1019.4
20260905131004 71 249 17.0 25.0 0.00 0.02 0.02 47 1019.4
20260905130004 72 198 16.0 28.0 0.00 0.02 0.02 46 1019.4
20260905125003 72 195 15.0 26.0 0.00 0.02 0.02 46 1019.4
20260905124004 72 192 14.0 26.0 0.00 0.02 0.02 48 1019.3
20260905123004 72 186 14.0 25.0 0.00 0.02 0.02 47 1019.4
20260905122004 72 238 15.0 27.0 0.00 0.02 0.02 45 1019.5
20260905121003 71 268 15.0 26.0 0.00 0.02 0.02 45 1019.5
20260905120004 71 269 15.0 22.0 0.00 0.02 0.02 49 1019.5
20260905115004 71 212 15.0 25.0 0.00 0.02 0.02 49 1019.5
20260905114004 71 247 12.0 25.0 0.00 0.02 0.02 52 1019.5
20260905113004 71 260 13.0 21.0 0.00 0.02 0.02 52 1019.5
20260905112004 71 186 14.0 24.0 0.00 0.02 0.02 53 1019.6
20260905111004 70 175 11.0 25.0 0.00 0.02 0.02 54 1019.7
20260905110004 68 178 13.0 23.0 0.00 0.02 0.02 58 1019.7
20260905105004 68 174 14.0 30.0 0.00 0.02 0.02 58 1019.7
20260905104005 68 187 14.0 26.0 0.00 0.02 0.02 60 1019.6
20260905103005 68 176 12.0 21.0 0.00 0.02 0.02 61 1019.7
20260905102004 67 191 11.0 18.0 0.00 0.02 0.02 64 1019.6
20260905101004 67 177 11.0 18.0 0.00 0.02 0.02 64 1019.8
20260905100004 67 187 12.0 18.0 0.00 0.02 0.02 64 1020.0
20260905095004 67 182 10.0 15.0 0.00 0.02 0.02 67 1019.9
20260905094004 65 173 11.0 19.0 0.00 0.02 0.02 71 1019.9
20260905093004 65 167 9.0 15.0 0.00 0.02 0.02 73 1019.9
20260905092004 63 180 8.0 14.0 0.00 0.02 0.02 80 1020.0
20260905091004 62 264 8.0 10.0 0.00 0.02 0.02 81 1020.1
20260905090004 62 244 9.0 16.0 0.00 0.02 0.02 81 1020.1
20260905085004 61 239 9.0 14.0 0.00 0.02 0.02 84 1020.2
20260905084004 60 246 7.0 13.0 0.00 0.02 0.02 85 1020.2
20260905083004 60 272 5.0 10.0 0.00 0.02 0.02 86 1020.0
20260905082005 59 273 6.0 11.0 0.00 0.02 0.02 86 1020.0
20260905081004 59 271 5.0 11.0 0.00 0.02 0.02 86 1019.9
20260905080004 58 268 4.0 9.0 0.00 0.02 0.02 87 1019.7
20260905075004 58 270 6.0 10.0 0.00 0.02 0.02 88 1019.5
20260905074004 58 271 5.0 9.0 0.00 0.02 0.02 88 1019.3
20260905073004 58 281 6.0 10.0 0.01 0.02 0.02 89 1019.3
20260905072005 58 304 5.0 9.0 0.01 0.02 0.02 89 1018.5
20260905071004 58 308 5.0 10.0 0.02 0.02 0.02 89 1018.7
20260905070005 57 275 6.0 12.0 0.02 0.02 0.02 89 1018.8
20260905065004 57 227 6.0 9.0 0.02 0.02 0.02 88 1018.1
20260905064004 57 216 4.0 7.0 0.02 0.02 0.02 89 1017.9
20260905063004 57 245 6.0 10.0 0.02 0.02 0.02 88 1018.9
20260905062004 57 267 6.0 11.0 0.02 0.02 0.02 87 1019.2
20260905061004 57 277 7.0 11.0 0.01 0.01 0.01 85 1019.4
20260905060004 57 297 10.0 15.0 0.01 0.01 0.01 84 1019.1
20260905055004 58 301 11.0 18.0 0.01 0.01 0.01 84 1018.9
20260905054004 59 300 13.0 19.0 0.01 0.01 0.01 82 1018.8
20260905053004 59 294 10.0 19.0 0.00 0.00 0.00 81 1018.9
20260905052004 59 287 8.0 14.0 0.00 0.00 0.00 83 1018.6
20260905051004 59 287 6.0 12.0 0.00 0.00 0.00 83 1017.9
20260905050004 59 289 7.0 14.0 0.00 0.00 0.00 83 1017.8
20260905045004 59 301 9.0 12.0 0.00 0.00 0.00 82 1018.2
20260905044003 59 298 8.0 12.0 0.00 0.00 0.00 83 1018.0
20260905043004 59 298 9.0 13.0 0.00 0.00 0.00 83 1017.5
20260905042004 60 300 8.0 12.0 0.00 0.00 0.00 82 1017.5
20260905041004 61 295 8.0 13.0 0.00 0.00 0.00 80 1017.4
20260905040004 61 304 10.0 14.0 0.00 0.00 0.00 80 1017.2
20260905035004 62 300 12.0 20.0 0.00 0.00 0.00 78 1017.2
20260905034004 63 307 11.0 20.0 0.00 0.00 0.00 75 1017.2
20260905033004 63 312 11.0 20.0 0.00 0.00 0.00 75 1016.6
20260905032004 63 316 13.0 23.0 0.00 0.00 0.00 74 1016.4
20260905031004 64 305 14.0 21.0 0.00 0.00 0.00 72 1016.4
20260905030004 65 310 10.0 16.0 0.00 0.00 0.00 70 1016.4
20260905025004 65 320 6.0 10.0 0.00 0.00 0.00 69 1016.0
20260905024004 65 315 9.0 14.0 0.00 0.00 0.00 68 1015.8
20260905023004 65 320 11.0 18.0 0.00 0.00 0.00 68 1015.7
20260905022005 65 324 13.0 22.0 0.00 0.00 0.00 68 1015.4
20260905021004 65 317 10.0 17.0 0.00 0.00 0.00 68 1015.8
20260905020004 65 318 8.0 13.0 0.00 0.00 0.00 67 1015.6
20260905015004 66 326 11.0 17.0 0.00 0.00 0.00 67 1015.4
20260905014004 66 329 15.0 21.0 0.00 0.00 0.00 67 1015.1
20260905013004 66 325 13.0 21.0 0.00 0.00 0.00 68 1015.4
20260905012004 67 327 16.0 25.0 0.00 0.00 0.00 68 1015.3
20260905011004 68 325 18.0 29.0 0.00 0.00 0.00 67 1015.2
20260905010004 70 324 16.0 35.0 0.00 0.00 0.00 65 1015.1
20260905005004 72 296 7.0 20.0 0.00 0.00 0.00 59 1014.1
20260905004004 73 255 5.0 8.0 0.00 0.00 0.00 58 1013.5
20260905003004 73 241 5.0 9.0 0.00 0.00 0.00 57 1013.3
20260905002004 73 237 5.0 10.0 0.00 0.00 0.00 57 1013.1
20260905001004 73 238 5.0 9.0 0.00 0.00 0.00 57 1013.2
20260905000004 73 238 5.0 9.0 0.00 0.00 0.00 57 1013.0
20260904235004 73 238 2.0 5.0 0.00 0.00 0.00 57 1013.0
20260904234004 73 233 3.0 7.0 0.00 0.00 0.00 57 1012.9
20260904233004 73 232 3.0 8.0 0.00 0.00 0.00 56 1013.0
20260904232003 73 233 4.0 8.0 0.00 0.00 0.00 56 1013.0
20260904231004 73 236 3.0 7.0 0.00 0.00 0.00 56 1012.9
20260904230004 73 231 3.0 5.0 0.00 0.00 0.00 56 1012.9
20260904225004 74 228 4.0 7.0 0.00 0.00 0.00 56 1012.8
20260904224004 74 245 5.0 9.0 0.00 0.00 0.00 55 1012.7
20260904223004 74 177 4.0 7.0 0.00 0.00 0.00 56 1012.7
20260904222004 74 185 4.0 9.0 0.00 0.00 0.00 55 1012.8
20260904221004 74 193 3.0 8.0 0.00 0.00 0.00 55 1012.6
20260904220006 74 188 3.0 7.0 0.00 0.00 0.00 55 1012.5
20260904215004 74 236 3.0 5.0 0.00 0.00 0.00 55 1012.5
20260904214005 74 187 3.0 6.0 0.00 0.00 0.00 54 1012.5
20260904213004 74 200 4.0 9.0 0.00 0.00 0.00 54 1012.5
20260904212004 74 208 3.0 7.0 0.00 0.00 0.00 55 1012.6
20260904211004 73 193 2.0 6.0 0.00 0.00 0.00 55 1012.6
20260904210004 73 169 0.0 5.0 0.00 0.00 0.00 55 1012.5
20260904205004 74 148 2.0 6.0 0.00 0.00 0.00 54 1012.6
20260904204003 74 149 1.0 5.0 0.00 0.00 0.00 52 1012.6
20260904203004 75 146 1.0 4.0 0.00 0.00 0.00 52 1012.7
20260904202004 76 156 0.0 2.0 0.00 0.00 0.00 51 1012.9
20260904201004 76 156 1.0 3.0 0.00 0.00 0.00 50 1013.0
20260904200004 76 161 1.0 5.0 0.00 0.00 0.00 50 1013.1
20260904195004 76 258 2.0 3.0 0.00 0.00 0.00 50 1013.1
20260904194004 76 251 1.0 3.0 0.00 0.00 0.00 50 1013.2
20260904193004 77 256 0.0 1.0 0.00 0.00 0.00 49 1013.2
20260904192004 77 251 1.0 3.0 0.00 0.00 0.00 48 1013.2